Tracking 17636 objects as of 30-April-2016
HD Live streaming from Space Station
objects crossing your sky now

ARIANE 44L R/B

Track ARIANE 44L R/B now!


NORAD ID: 26696
Int'l Code: 2001-005C
Perigee: 322.0 km
Apogee: 32,336.7 km
Inclination: 7.3 °
Period: 567.3 minutes
Semi major axis: 22700 km
RCS: 23.3181 m2 (large)
Launch date: February 7, 2001
Source: France (FR)
Launch site: FRENCH GUIANA (FRGUI)

Note: This is a ROCKET BODY
Your satellite tracking list
Your tracking list is empty





NASA's NSSDC Master Catalog

Two Line Element Set (TLE):
1 26696U 01005C   16120.85048369  .00000263  00000-0  23604-3 0  9997
2 26696   7.3460  47.7697 7051604 247.2477  27.6487  2.53836553132748
Source of the keplerian elements: AFSPC

N2YO: 295